Regional Weather Roundup
Issued by NWS Wakefield, VA

Home | Current Version | Previous Version | Text Only | Print | Product List | Glossary Off
Versions: 1 2 3 4 5 6 7 8 9 10 11 12 13 14 15 16 17 18 19 20 21 22 23 24 25 26 27 28 29 30 31 32 33 34 35 36 37 38 39 40 41 42 43 44 45 46 47 48 49 50

360
ASUS41 KAKQ 201614
RWRAKQ

REGIONAL WEATHER ROUNDUP
NATIONAL WEATHER SERVICE WAKEFIELD VA
1100 AM EST MON NOV 20 2017

Note: "fair" indicates few or no clouds below 12,000 feet with no
significant weather and/or obstructions to visibility. * = Denotes
station may not report precipitation (e.g., rain,snow,etc.),
thunder or fog.

VAZ042-051-052>054-056-201700-
NORTHERN VIRGINIA

CITY           SKY/WX    TMP DP  RH WIND       PRES   REMARKS
WASH NATIONAL  SUNNY     46  20  35 W9G21     30.22F
DULLES         SUNNY     44  22  41 W6        30.21S
FORT BELVOIR   SUNNY     46  21  37 CALM      30.22S
QUANTICO       SUNNY     45  29  53 S6        30.24S
FREDERICKSBRG* SUNNY     47  25  41 W5        30.22F
STAFFORD*      SUNNY     46  21  37 W6        30.26S
WARRENTON      NOT AVBL
CULPEPER*      SUNNY     47  19  32 SW7       30.23S
MANASSAS*      SUNNY     45  24  43 SW8       30.22F
LEESBURG*      SUNNY     45  27  49 NW13      30.21F
WINCHESTER     SUNNY     41  19  42 W8        30.18S
FRONT ROYAL*   SUNNY     43  19  39 MISG      30.18S
LURAY*         SUNNY     43  21  42 S9        30.19S
$$

VAZ048-049-060>072-079>083-201700-
CENTRAL AND SOUTH CENTRAL VIRGINIA

CITY           SKY/WX    TMP DP  RH WIND       PRES   REMARKS
RICHMOND       MOSUNNY   45  21  38 W10       30.24S
CHESTERFIELD*  NOT AVBL
PETERSBURG*    NOT AVBL
HANOVER        SUNNY     48  23  37 W9        30.25S
TAPPAHANNOCK*    N/A    N/A N/A N/A MISG        N/A
QUINTON*       FAIR      47  25  41 MISG      30.24S
CHARLOTTSVILLE SUNNY     47  20  34 VRB6      30.22R
GORDONSVILLE*  SUNNY     46  22  39 S7        30.23R
ORANGE*        SUNNY     45  21  39 SW10      30.23R
LOUISA*          N/A     46  21  37 SW8         N/A
BUMPASS*       FAIR      46  20  35 SW6       30.23S
FARMVILLE*     SUNNY     49  25  39 SW5       30.25R
CREWE*         FAIR      47  25  41 NW5       30.25S
FORT PICKETT*  NOT AVBL
CHASE CITY*    FAIR      46  26  47 W7        30.26S
CLARKSVILLE*   FAIR      45  27  49 W3        30.27S
SOUTH HILL*    SUNNY     44  27  50 CALM      30.32S
LAWRENCEVILLE* FAIR      46  24  42 CALM      30.25F
EMPORIA*       SUNNY     46  27  46 W6        30.28S
$$

VAZ088>098-201700-
SOUTHEAST VIRGINIA

CITY           SKY/WX    TMP DP  RH WIND       PRES   REMARKS
NORFOLK        SUNNY     49  25  39 W5        30.25R
VIRGINIA BEACH NOT AVBL
NORFOLK NAVAL  SUNNY     49  27  42 NW9       30.26R
WEST POINT*    SUNNY     48  23  37 W9        30.26S
SALUDA*        FAIR      46  26  46 NW7       30.23F
NEWPORT NEWS   SUNNY     48  28  46 W8        30.25R
LANGLEY AFB    SUNNY     48  26  41 NW6       30.25R
FORT EUSTIS    SUNNY     47  28  48 W6        30.22S
WILLIAMSBURG*  SUNNY     52  28  40 NW3       30.25F
HR EXEC AP*    NOT AVBL
FRANKLIN*      SUNNY     47  27  44 NW6       30.26F
US460-WAKEFLD  SUNNY     48  26  42 W9        30.25S
$$

VAZ020-022-025-037-045-201700-
WEST CENTRAL AND SOUTHWEST VIRGINIA

CITY           SKY/WX    TMP DP  RH WIND       PRES   REMARKS
STAUNTON*      SUNNY     42  18  38 SW8       30.23R
WAYNESBORO*    SUNNY     41  18  39 SW5       30.21R
HOT SPRINGS VA SUNNY     32  14  47 W7        30.13R
LYNCHBURG      SUNNY     44  20  38 W8        30.26R
DANVILLE       SUNNY     46  24  42 W8        30.28S
SOUTH BOSTON*  FAIR      47  21  35 NW5       30.27S
MARTINSVILLE   SUNNY     45  22  39 NW5       30.30S
ROANOKE        SUNNY     42  21  43 SW15      30.28R
BLACKSBURG     SUNNY     39  23  52 W6        30.27R
DUBLIN*        SUNNY     40  26  56 SW8       30.26R
MARION*        SUNNY     38  22  53 SW9       30.26S
HILLSVILLE*    SUNNY     38  17  42 W6        30.21S
RICHLANDS*     FAIR      35  24  64 CALM      30.23S
WISE*          SUNNY     37  25  60 SW3       30.23S
ABINGDON*      SUNNY     40  28  62 W5        30.26S
$$

MDZ021>025-VAZ099-100-201700-
SOUTHERN MARYLAND AND THE DELMARVA PENINSULA

CITY           SKY/WX    TMP DP  RH WIND       PRES   REMARKS
PATUXENT RIVER SUNNY     47  22  37 W13       30.22R
BAY BRIDGE APT SUNNY     43  23  45 NW13      30.20S
LEONARDTOWN    SUNNY     45  23  42 W15       30.23S
DOVER          SUNNY     45  22  40 W13       30.17R
GEORGETOWN     SUNNY     45  25  45 W12G20    30.18S
EASTON         SUNNY     45  23  42 NW10      30.23S
CAMBRIDGE      SUNNY     45  23  42 W12G17    30.21S
SALISBURY      SUNNY     45  25  45 W12       30.19S
OCEAN CITY     SUNNY     46  28  49 W7        30.19S
WALLOPS ISLAND SUNNY     47  24  40 W15G22    30.22S
ACCOMACK*      SUNNY     47  29  49 W10G17    30.22F
$$

NCZ012>017-030>032-201700-
NORTH CENTRAL AND EASTERN NORTH CAROLINA

CITY           SKY/WX    TMP DP  RH WIND       PRES   REMARKS
ROANOKE RAPIDS FAIR      46  28  49 NW5       30.27S
RALEIGH        SUNNY     48  21  34 NW8G17    30.27F
ELIZABETH CITY SUNNY     50  26  39 NW9       30.26R
AHOSKIE*       SUNNY     46  28  48 CALM      30.27F
EDENTON*       SUNNY     50  30  46 CALM      30.27F
CURRITUCK*     SUNNY     48  25  40 W7        30.26R
KILL DEVIL HLS NOT AVBL
MANTEO         SUNNY     48  30  50 NW6       30.26S
CAPE HATTERAS  SUNNY     52  34  50 VRB5      30.25S
TARBORO*       NOT AVBL
GOLDSBORO      SUNNY     52  25  35 NW7       30.27R
WASHINGTON     SUNNY     49  28  42 NW7       30.27F
GREENVILLE     SUNNY     48  28  46 N6        30.28S
NEW BERN       SUNNY     50  30  46 NW8       30.29R
WILMINGTON     SUNNY     53  29  39 N9        30.28S
$$

VAZ048-201700-
ELSEWHERE

CITY           SKY/WX    TMP DP  RH WIND       PRES   REMARKS
HARRISBURG PA  MOSUNNY   42  24  49 NW13G22   30.13F
BALTIMORE      MOSUNNY   43  21  41 W15       30.19S
ANNAPOLIS      NOT AVBL
ANDREWS AFB    SUNNY     45  19  34 W12       30.20R
PHILADELPHIA   MOSUNNY   44  20  38 NW16G22   30.14S
HENDERSON NC   SUNNY     45  22  41 CALM      30.27S
GREENSBORO     SUNNY     49  17  28 NW8       30.26S
ROCKY MOUNT    SUNNY     48  27  44 N5        30.28S
$$

VAZ100-201700-
MARINE

STATION/POSITION TIME  TEMP    WIND        PRES    WAVE   SWELL
                       AIR SEA DIR/SP/G            HT/PER HT/PER
                 (UTC) (F)     (DEG/KT/KT) (MB)    (FT/S) (FT/S)
BRANDYWINE LGT   1542   43     300/ 19/ 24 1021.8R
CAPE MAY NJ      1542   43 47  300/ 15/ 20 1021.0R
LEWES DE         1542   43 51  280/ 14/ 18 1021.5F
15NM E FENWICK I 1550   44 59  280/ 16/ 19 1022.0F   4/ 6   2/ 9
OCEAN-CITY-INLET 1542   44 54  290/  8/ 11 1022.6S
WACHAPREAGUE VA  1542   47 50  260/  6/ 12 1023.3F
THOMAS POINT MD  1600   42 52  290/ 17/ 20   N/A
GOOSES REEF MD   1550   44     300/ 14/ 17 1025.3R
COVE POINT MD    1542   43     320/ 11/ 17 1023.8R
SOLOMONS ISLAND  1542   44 54  300/  8/ 14 1023.0R
BISHOPS HEAD MD  1542   42 43  290/ 13/ 15 1023.7R
PINEY POINT MD   1542          320/ 12/ 14   N/A
POTOMAC MD       1550   44     290/  8/ 12 1023.1R
CAMBRIDGE MD     1542   45 50              1023.7R
LEWISETTA VA     1542   45 50  310/ 11/ 13 1023.6S
RAPPAHANNOCK LGT 1536          290/ 10/ 12 1024.2F
STINGRAY PT      1550   45     320/ 10/ 12 1023.9F
YORK RVR RNG VA  1536   45     350/  7/ 10 1024.5R
YORKTOWN VA      1536   45 54  320/ 12/ 13 1024.0R
JAMESTOWN VA     1550          290/  6/  8   N/A
DOMINION TERM VA 1536   45     310/ 11/ 13 1024.5R
KIPTOPEKE VA     1536      53  330/ 13/ 15   N/A
CAPE HENRY VA    1536   47     290/  8/ 11   N/A
WILLOUBY STN VA  1536   46     310/  7/ 10 1024.2R
S CRANEY ISL VA  1536   46     310/  8/ 12 1024.3R
CAPE HENRY BUOY  1600      59                N/A     2/ 3
1ST LANDING BUOY 1550   46     320/ 10/ 14 1024.3R
CAPE CHARLES BUO 1551      58                N/A     2/ 3
64NM E OF VA BCH 1550   50 60  320/ 10/ 14 1023.7R   5/ 6   5/ 6
DUCK PIER NC     1536   46 59  320/ 10/ 14 1023.7R
44100 DUCK FRF   1545      61                N/A     3/ 6
44056 DUCK FRF   1600      61                N/A     3/ 5
OREGON INLET NC  1536   48 55  310/  9/ 13 1024.2S
HATTERAS NC      1536   48 58  350/ 15/ 16 1024.0R
DIAMOND SHLS NC  1550   51 67  340/ 16/ 19 1024.3R   4/ 8   2/ 8
CAPE LOOKOUT NC  1600          340/  8/ 11 1025.1R
$$




USA.gov is the U.S. government's official web portal to all federal, state and local government web resources and services.